Location: Beaver Brook Station
(42.3793°N, 71.2203°W)
Time: 01:48:12
(UTC+00:00)

Cosmos 2278 - Pass Details

Date: 29 October 2020
Orbit: 841 x 851 km, 71.1° (Epoch: 05 December)

Event Time Altitude Azimuth Distance (km) Brightness Sun altitude
Rises 23:06:44 0° 186° (S) 3,396 7.0 -16.3°
Reaches altitude 10° 23:09:15 10° 180° (S) 2,464 6.2 -16.7°
Maximum altitude 23:14:39 48° 108° (ESE) 1,090 3.9 -17.7°
Enters shadow 23:18:26 19° 41° (NE) 1,891 5.1 -18.4°
